Time,TemperatureF,DewpointF,PressureIn,WindDirection,WindDirectionDegrees,WindSpeedMPH,WindSpeedGustMPH,Humidity,HourlyPrecipIn,Conditions,Clouds,dailyrainin,SolarRadiationWatts/m^2,SoftwareType,DateUTC
2013-10-01 00:01:00,50.3,46.6,29.63,West,260,6.0,9.0,87,0.00,,BKN100,0.00,0.00,VWS V14.00,2013-10-01 05:01:00,
2013-10-01 00:06:00,50.1,46.4,29.63,WSW,257,8.0,9.0,87,0.00,,BKN100,0.00,0.00,VWS V14.00,2013-10-01 05:06:00,
2013-10-01 00:11:00,50.5,46.8,29.63,West,262,9.0,10.0,87,0.00,,BKN100,0.00,0.00,VWS V14.00,2013-10-01 05:11:00,
2013-10-01 00:17:00,51.0,46.7,29.63,West,263,9.0,13.0,85,0.00,,BKN100,0.00,0.00,VWS V14.00,2013-10-01 05:17:00,
2013-10-01 00:23:00,51.1,46.8,29.64,WSW,258,9.0,13.0,85,0.00,,BKN100,0.00,0.00,VWS V14.00,2013-10-01 05:23:00,
2013-10-01 00:28:00,50.9,46.6,29.65,WSW,255,9.0,13.0,85,0.00,,BKN100,0.00,0.00,VWS V14.00,2013-10-01 05:28:00,
2013-10-01 00:33:00,51.3,46.6,29.65,West,261,7.0,13.0,84,0.00,,BKN100,0.00,0.00,VWS V14.00,2013-10-01 05:33:00,
2013-10-01 00:38:00,51.4,46.4,29.64,West,277,9.0,13.0,83,0.00,,BKN100,0.00,0.00,VWS V14.00,2013-10-01 05:38:00,
2013-10-01 00:43:00,51.3,46.3,29.65,West,277,11.0,13.0,83,0.00,,CLR,0.00,0.00,VWS V14.00,2013-10-01 05:43:00,
2013-10-01 00:48:00,51.4,46.1,29.64,WNW,285,8.0,13.0,82,0.00,,CLR,0.00,0.00,VWS V14.00,2013-10-01 05:48:00,
2013-10-01 00:53:00,51.1,45.5,29.65,WNW,284,9.0,14.0,81,0.00,,CLR,0.00,0.00,VWS V14.00,2013-10-01 05:53:00,
2013-10-01 00:58:00,51.1,45.2,29.65,WNW,283,10.0,14.0,80,0.00,,CLR,0.00,0.00,VWS V14.00,2013-10-01 05:58:00,
2013-10-01 01:03:00,50.9,45.0,29.65,WNW,287,9.0,13.0,80,0.00,,CLR,0.00,0.00,VWS V14.00,2013-10-01 06:03:00,
2013-10-01 01:08:00,50.6,44.7,29.65,WNW,290,8.0,13.0,80,0.00,,CLR,0.00,0.00,VWS V14.00,2013-10-01 06:08:00,
2013-10-01 01:13:00,50.3,44.4,29.65,WNW,290,12.0,14.0,80,0.00,,CLR,0.00,0.00,VWS V14.00,2013-10-01 06:13:00,
2013-10-01 01:18:00,49.9,44.0,29.65,WNW,289,7.0,14.0,80,0.00,,CLR,0.00,0.00,VWS V14.00,2013-10-01 06:18:00,
2013-10-01 01:23:00,49.5,43.6,29.65,WNW,286,10.0,14.0,80,0.00,,CLR,0.00,0.00,VWS V14.00,2013-10-01 06:23:00,
2013-10-01 01:29:00,49.3,43.4,29.65,WNW,283,10.0,15.0,80,0.00,,CLR,0.00,0.00,VWS V14.00,2013-10-01 06:29:00,
2013-10-01 01:34:00,49.0,43.1,29.65,WNW,286,11.0,12.0,80,0.00,,CLR,0.00,0.00,VWS V14.00,2013-10-01 06:34:00,
2013-10-01 01:39:00,48.8,42.9,29.65,WNW,294,11.0,12.0,80,0.00,,CLR,0.00,0.00,VWS V14.00,2013-10-01 06:39:00,
2013-10-01 01:44:00,49.1,42.9,29.65,WNW,292,12.0,15.0,79,0.00,,CLR,0.00,0.00,VWS V14.00,2013-10-01 06:44:00,
2013-10-01 01:49:00,49.0,42.8,29.65,WNW,294,11.0,15.0,79,0.00,,CLR,0.00,0.00,VWS V14.00,2013-10-01 06:49:00,
2013-10-01 01:54:00,49.1,42.5,29.65,WNW,296,12.0,15.0,78,0.00,,CLR,0.00,0.00,VWS V14.00,2013-10-01 06:54:00,
2013-10-01 01:59:00,49.2,42.3,29.66,WNW,293,9.0,15.0,77,0.00,,CLR,0.00,0.00,VWS V14.00,2013-10-01 06:59:00,
2013-10-01 02:04:00,48.8,42.3,29.66,WNW,284,12.0,13.0,78,0.00,,CLR,0.00,0.00,VWS V14.00,2013-10-01 07:04:00,
2013-10-01 02:09:00,48.9,42.0,29.67,West,273,10.0,14.0,77,0.00,,CLR,0.00,0.00,VWS V14.00,2013-10-01 07:09:00,
2013-10-01 02:14:00,48.2,41.7,29.67,West,260,7.0,14.0,78,0.00,,CLR,0.00,0.00,VWS V14.00,2013-10-01 07:14:00,
2013-10-01 02:20:00,47.7,41.5,29.67,WSW,257,6.0,14.0,79,0.00,,CLR,0.00,0.00,VWS V14.00,2013-10-01 07:20:00,
2013-10-01 02:26:00,47.3,41.1,29.67,WSW,257,6.0,14.0,79,0.00,,CLR,0.00,0.00,VWS V14.00,2013-10-01 07:26:00,
2013-10-01 02:31:00,46.3,40.5,29.68,WSW,257,6.0,8.0,80,0.00,,CLR,0.00,0.00,VWS V14.00,2013-10-01 07:31:00,
2013-10-01 02:36:00,46.4,40.9,29.68,West,259,8.0,12.0,81,0.00,,CLR,0.00,0.00,VWS V14.00,2013-10-01 07:36:00,
2013-10-01 02:41:00,46.4,40.6,29.68,West,262,10.0,12.0,80,0.00,,CLR,0.00,0.00,VWS V14.00,2013-10-01 07:41:00,
2013-10-01 02:46:00,46.0,40.2,29.68,West,264,7.0,12.0,80,0.00,,CLR,0.00,0.00,VWS V14.00,2013-10-01 07:46:00,
2013-10-01 02:51:00,45.6,40.1,29.69,West,264,7.0,12.0,81,0.00,,CLR,0.00,0.00,VWS V14.00,2013-10-01 07:51:00,
2013-10-01 02:56:00,45.5,40.0,29.69,West,261,5.0,12.0,81,0.00,,CLR,0.00,0.00,VWS V14.00,2013-10-01 07:56:00,
2013-10-01 03:02:00,45.2,39.7,29.69,West,262,8.0,10.0,81,0.00,,CLR,0.00,0.00,VWS V14.00,2013-10-01 08:02:00,
2013-10-01 03:07:00,46.0,40.5,29.69,West,268,8.0,15.0,81,0.00,,CLR,0.00,0.00,VWS V14.00,2013-10-01 08:07:00,
2013-10-01 03:12:00,46.4,40.6,29.69,WSW,257,5.0,15.0,80,0.00,,CLR,0.00,0.00,VWS V14.00,2013-10-01 08:12:00,
2013-10-01 03:17:00,46.5,40.3,29.69,West,259,6.0,15.0,79,0.00,,CLR,0.00,0.00,VWS V14.00,2013-10-01 08:17:00,
2013-10-01 03:23:00,46.5,40.3,29.69,West,259,4.0,15.0,79,0.00,,CLR,0.00,0.00,VWS V14.00,2013-10-01 08:23:00,
2013-10-01 03:28:00,45.9,39.8,29.69,West,259,5.0,15.0,79,0.00,,CLR,0.00,0.00,VWS V14.00,2013-10-01 08:28:00,
2013-10-01 03:33:00,45.3,39.2,29.69,West,259,5.0,6.0,79,0.00,,CLR,0.00,0.00,VWS V14.00,2013-10-01 08:33:00,
2013-10-01 03:38:00,45.0,39.2,29.70,West,259,5.0,6.0,80,0.00,,CLR,0.00,0.00,VWS V14.00,2013-10-01 08:38:00,
2013-10-01 03:44:00,45.8,39.7,29.70,West,267,6.0,12.0,79,0.00,,CLR,0.00,0.00,VWS V14.00,2013-10-01 08:44:00,
2013-10-01 03:49:00,45.5,39.4,29.70,West,265,6.0,12.0,79,0.00,,CLR,0.00,0.00,VWS V14.00,2013-10-01 08:49:00,
2013-10-01 03:54:00,45.1,39.0,29.70,West,261,4.0,12.0,79,0.00,,CLR,0.00,0.00,VWS V14.00,2013-10-01 08:54:00,
2013-10-01 03:59:00,44.8,39.0,29.71,West,261,4.0,12.0,80,0.00,,CLR,0.00,0.00,VWS V14.00,2013-10-01 08:59:00,
2013-10-01 04:04:00,44.5,39.0,29.71,West,261,3.0,6.0,81,0.00,,CLR,0.00,0.00,VWS V14.00,2013-10-01 09:04:00,
2013-10-01 04:09:00,44.4,38.9,29.70,WSW,254,3.0,7.0,81,0.00,,CLR,0.00,0.00,VWS V14.00,2013-10-01 09:09:00,
2013-10-01 04:14:00,44.3,38.8,29.71,WSW,255,4.0,7.0,81,0.00,,CLR,0.00,0.00,VWS V14.00,2013-10-01 09:14:00,
2013-10-01 04:20:00,44.5,38.7,29.71,WNW,291,5.0,8.0,80,0.00,,CLR,0.00,0.00,VWS V14.00,2013-10-01 09:20:00,
2013-10-01 04:25:00,45.1,38.7,29.71,West,279,7.0,11.0,78,0.00,,CLR,0.00,0.00,VWS V14.00,2013-10-01 09:25:00,
2013-10-01 04:30:00,45.4,38.6,29.72,WNW,282,7.0,10.0,77,0.00,,CLR,0.00,0.00,VWS V14.00,2013-10-01 09:30:00,
2013-10-01 04:35:00,46.0,38.5,29.71,West,279,9.0,11.0,75,0.00,,CLR,0.00,0.00,VWS V14.00,2013-10-01 09:35:00,
2013-10-01 04:40:00,45.8,38.3,29.71,West,274,11.0,11.0,75,0.00,,CLR,0.00,0.00,VWS V14.00,2013-10-01 09:40:00,
2013-10-01 04:45:00,45.7,38.6,29.72,West,272,7.0,12.0,76,0.00,,CLR,0.00,0.00,VWS V14.00,2013-10-01 09:45:00,
2013-10-01 04:50:00,45.4,38.3,29.72,West,275,7.0,12.0,76,0.00,,CLR,0.00,0.00,VWS V14.00,2013-10-01 09:50:00,
2013-10-01 04:56:00,45.3,38.2,29.72,West,277,6.0,12.0,76,0.00,,CLR,0.00,0.00,VWS V14.00,2013-10-01 09:56:00,
2013-10-01 05:01:00,45.2,38.1,29.72,West,279,6.0,9.0,76,0.00,,CLR,0.00,0.00,VWS V14.00,2013-10-01 10:01:00,
2013-10-01 05:06:00,44.7,37.9,29.73,West,281,6.0,9.0,77,0.00,,CLR,0.00,0.00,VWS V14.00,2013-10-01 10:06:00,
2013-10-01 05:11:00,44.2,37.5,29.73,West,281,5.0,9.0,77,0.00,,CLR,0.00,0.00,VWS V14.00,2013-10-01 10:11:00,
2013-10-01 05:16:00,43.8,37.4,29.73,West,281,5.0,9.0,78,0.00,,CLR,0.00,0.00,VWS V14.00,2013-10-01 10:16:00,
2013-10-01 05:21:00,43.9,37.5,29.73,West,281,6.0,9.0,78,0.00,,CLR,0.00,0.00,VWS V14.00,2013-10-01 10:21:00,
2013-10-01 05:27:00,44.0,37.3,29.74,West,281,5.0,9.0,77,0.00,,CLR,0.00,0.00,VWS V14.00,2013-10-01 10:27:00,
2013-10-01 05:32:00,43.9,37.2,29.74,West,281,8.0,9.0,77,0.00,,CLR,0.00,0.00,VWS V14.00,2013-10-01 10:32:00,
2013-10-01 05:37:00,44.0,37.3,29.74,West,281,6.0,9.0,77,0.00,,CLR,0.00,0.00,VWS V14.00,2013-10-01 10:37:00,
2013-10-01 05:42:00,44.3,37.2,29.74,WNW,284,7.0,10.0,76,0.00,,CLR,0.00,0.00,VWS V14.00,2013-10-01 10:42:00,
2013-10-01 05:47:00,44.3,37.2,29.74,WNW,286,12.0,13.0,76,0.00,,CLR,0.00,0.00,VWS V14.00,2013-10-01 10:47:00,
2013-10-01 05:52:00,44.9,37.1,29.75,WNW,284,11.0,14.0,74,0.00,,CLR,0.00,0.00,VWS V14.00,2013-10-01 10:52:00,
2013-10-01 05:58:00,45.2,37.1,29.75,WNW,285,11.0,14.0,73,0.00,,CLR,0.00,0.00,VWS V14.00,2013-10-01 10:58:00,
2013-10-01 06:03:00,45.3,37.2,29.75,WNW,286,11.0,14.0,73,0.00,,CLR,0.00,0.00,VWS V14.00,2013-10-01 11:03:00,
2013-10-01 06:08:00,45.5,37.0,29.75,WNW,289,11.0,15.0,72,0.00,,CLR,0.00,0.00,VWS V14.00,2013-10-01 11:08:00,
2013-10-01 06:13:00,45.5,36.7,29.75,WNW,287,9.0,15.0,71,0.00,,CLR,0.00,0.00,VWS V14.00,2013-10-01 11:13:00,
2013-10-01 06:19:00,45.4,36.6,29.76,WNW,290,10.0,15.0,71,0.00,,CLR,0.00,0.00,VWS V14.00,2013-10-01 11:19:00,
2013-10-01 06:24:00,45.9,36.7,29.76,WNW,292,10.0,15.0,70,0.00,,CLR,0.00,0.00,VWS V14.00,2013-10-01 11:24:00,
2013-10-01 06:29:00,45.7,36.5,29.76,WNW,294,12.0,16.0,70,0.00,,CLR,0.00,0.00,VWS V14.00,2013-10-01 11:29:00,
2013-10-01 06:34:00,45.3,36.5,29.76,WNW,289,10.0,14.0,71,0.00,,CLR,0.00,0.00,VWS V14.00,2013-10-01 11:34:00,
2013-10-01 06:39:00,44.9,36.4,29.76,West,281,10.0,14.0,72,0.00,,CLR,0.00,0.00,VWS V14.00,2013-10-01 11:39:00,
2013-10-01 06:45:00,44.6,36.2,29.76,WNW,283,10.0,14.0,72,0.00,,CLR,0.00,0.00,VWS V14.00,2013-10-01 11:45:00,
2013-10-01 06:50:00,44.6,36.2,29.77,WNW,283,10.0,14.0,72,0.00,,CLR,0.00,0.00,VWS V14.00,2013-10-01 11:50:00,
2013-10-01 06:55:00,45.0,36.2,29.77,WNW,285,9.0,15.0,71,0.00,,CLR,0.00,0.00,VWS V14.00,2013-10-01 11:55:00,
2013-10-01 07:00:00,45.2,36.0,29.77,West,280,8.0,14.0,70,0.00,,CLR,0.00,0.00,VWS V14.00,2013-10-01 12:00:00,
2013-10-01 07:05:00,44.8,36.0,29.77,West,271,9.0,14.0,71,0.00,,CLR,0.00,0.00,VWS V14.00,2013-10-01 12:05:00,
2013-10-01 07:11:00,43.7,35.6,29.78,West,263,7.0,14.0,73,0.00,,CLR,0.00,0.00,VWS V14.00,2013-10-01 12:11:00,
2013-10-01 07:16:00,42.7,35.0,29.78,West,262,8.0,14.0,74,0.00,,CLR,0.00,0.00,VWS V14.00,2013-10-01 12:16:00,
2013-10-01 07:21:00,43.2,35.5,29.78,West,269,7.0,14.0,74,0.00,,CLR,0.00,0.00,VWS V14.00,2013-10-01 12:21:00,
2013-10-01 07:26:00,44.2,35.8,29.78,West,277,12.0,14.0,72,0.00,,CLR,0.00,0.00,VWS V14.00,2013-10-01 12:26:00,
2013-10-01 07:31:00,44.5,35.7,29.78,West,273,11.0,13.0,71,0.00,,CLR,0.00,0.00,VWS V14.00,2013-10-01 12:31:00,
2013-10-01 07:36:00,44.6,35.8,29.78,West,266,9.0,13.0,71,0.00,,CLR,0.00,0.00,VWS V14.00,2013-10-01 12:36:00,
2013-10-01 07:41:00,43.7,35.3,29.79,West,266,10.0,13.0,72,0.00,,CLR,0.00,5.00,VWS V14.00,2013-10-01 12:41:00,
2013-10-01 07:46:00,43.1,35.4,29.79,West,266,8.0,13.0,74,0.00,,CLR,0.00,7.00,VWS V14.00,2013-10-01 12:46:00,
2013-10-01 07:51:00,42.9,35.2,29.79,West,265,10.0,13.0,74,0.00,,CLR,0.00,9.00,VWS V14.00,2013-10-01 12:51:00,
2013-10-01 07:57:00,42.9,35.5,29.80,West,263,5.0,13.0,75,0.00,,CLR,0.00,12.00,VWS V14.00,2013-10-01 12:57:00,
2013-10-01 08:02:00,43.2,35.5,29.80,West,261,12.0,12.0,74,0.00,,CLR,0.00,14.00,VWS V14.00,2013-10-01 13:02:00,
2013-10-01 08:07:00,43.7,35.6,29.81,WSW,257,11.0,13.0,73,0.00,,CLR,0.00,18.00,VWS V14.00,2013-10-01 13:07:00,
2013-10-01 08:12:00,43.9,35.5,29.81,West,259,7.0,13.0,72,0.00,,CLR,0.00,25.00,VWS V14.00,2013-10-01 13:12:00,
2013-10-01 08:17:00,44.1,35.7,29.82,WSW,258,8.0,13.0,72,0.00,,CLR,0.00,32.00,VWS V14.00,2013-10-01 13:17:00,
2013-10-01 08:22:00,44.2,35.8,29.82,WSW,257,4.0,13.0,72,0.00,,CLR,0.00,44.00,VWS V14.00,2013-10-01 13:22:00,
2013-10-01 08:27:00,44.5,35.7,29.82,WSW,241,9.0,13.0,71,0.00,,CLR,0.00,56.00,VWS V14.00,2013-10-01 13:27:00,
2013-10-01 08:32:00,44.8,35.6,29.81,WSW,244,10.0,13.0,70,0.00,,CLR,0.00,69.00,VWS V14.00,2013-10-01 13:32:00,
2013-10-01 08:38:00,45.0,35.8,29.82,WSW,245,9.0,15.0,70,0.00,,CLR,0.00,77.00,VWS V14.00,2013-10-01 13:38:00,
2013-10-01 08:43:00,45.5,36.3,29.82,WSW,253,12.0,15.0,70,0.00,,CLR,0.00,102.00,VWS V14.00,2013-10-01 13:43:00,
2013-10-01 08:48:00,45.9,36.3,29.82,WSW,253,13.0,17.0,69,0.00,,CLR,0.00,120.00,VWS V14.00,2013-10-01 13:48:00,
2013-10-01 08:53:00,46.4,36.4,29.83,WSW,256,13.0,17.0,68,0.00,,CLR,0.00,141.00,VWS V14.00,2013-10-01 13:53:00,
2013-10-01 08:58:00,46.8,36.4,29.83,WSW,255,11.0,17.0,67,0.00,,CLR,0.00,155.00,VWS V14.00,2013-10-01 13:58:00,
2013-10-01 09:03:00,47.0,37.0,29.83,West,261,13.0,17.0,68,0.00,,CLR,0.00,151.00,VWS V14.00,2013-10-01 14:03:00,
2013-10-01 09:09:00,47.3,37.3,29.83,West,259,13.0,17.0,68,0.00,,CLR,0.00,121.00,VWS V14.00,2013-10-01 14:09:00,
2013-10-01 09:15:00,48.0,37.2,29.83,West,263,13.0,17.0,66,0.00,,CLR,0.00,139.00,VWS V14.00,2013-10-01 14:15:00,
2013-10-01 09:20:00,48.5,37.7,29.84,West,270,11.0,17.0,66,0.00,,CLR,0.00,197.00,VWS V14.00,2013-10-01 14:20:00,
2013-10-01 09:25:00,49.1,37.5,29.84,West,266,12.0,17.0,64,0.00,,CLR,0.00,253.00,VWS V14.00,2013-10-01 14:25:00,
2013-10-01 09:31:00,49.6,37.5,29.83,West,278,10.0,14.0,63,0.00,,CLR,0.00,269.00,VWS V14.00,2013-10-01 14:31:00,
2013-10-01 09:36:00,50.1,38.0,29.84,WNW,286,15.0,16.0,63,0.00,,CLR,0.00,287.00,VWS V14.00,2013-10-01 14:36:00,
2013-10-01 09:41:00,50.6,37.7,29.83,West,275,11.0,16.0,61,0.00,,CLR,0.00,302.00,VWS V14.00,2013-10-01 14:41:00,
2013-10-01 09:46:00,51.2,37.8,29.83,WNW,289,12.0,17.0,60,0.00,,CLR,0.00,313.00,VWS V14.00,2013-10-01 14:46:00,
2013-10-01 09:51:00,51.9,38.0,29.83,WNW,286,10.0,21.0,59,0.00,,CLR,0.00,329.00,VWS V14.00,2013-10-01 14:51:00,
2013-10-01 09:56:00,52.5,38.2,29.83,WNW,289,13.0,21.0,58,0.00,,CLR,0.00,345.00,VWS V14.00,2013-10-01 14:56:00,
2013-10-01 10:01:00,52.8,37.5,29.84,WNW,290,14.0,22.0,56,0.00,,CLR,0.00,359.00,VWS V14.00,2013-10-01 15:01:00,
2013-10-01 10:07:00,53.3,38.0,29.84,WNW,292,17.0,22.0,56,0.00,,CLR,0.00,369.00,VWS V14.00,2013-10-01 15:07:00,
2013-10-01 10:12:00,53.7,37.9,29.84,West,279,19.0,22.0,55,0.00,,CLR,0.00,381.00,VWS V14.00,2013-10-01 15:12:00,
2013-10-01 10:17:00,54.0,38.2,29.84,West,271,15.0,22.0,55,0.00,,CLR,0.00,376.00,VWS V14.00,2013-10-01 15:17:00,
2013-10-01 10:22:00,54.3,38.0,29.84,WNW,287,18.0,22.0,54,0.00,,CLR,0.00,381.00,VWS V14.00,2013-10-01 15:22:00,
2013-10-01 10:28:00,54.7,38.9,29.84,West,279,14.0,22.0,55,0.00,,CLR,0.00,357.00,VWS V14.00,2013-10-01 15:28:00,
2013-10-01 10:33:00,55.1,38.8,29.85,West,281,19.0,20.0,54,0.00,,CLR,0.00,320.00,VWS V14.00,2013-10-01 15:33:00,
2013-10-01 10:38:00,55.6,39.2,29.85,West,267,18.0,20.0,54,0.00,,CLR,0.00,357.00,VWS V14.00,2013-10-01 15:38:00,
2013-10-01 10:43:00,55.8,38.9,29.85,West,271,15.0,23.0,53,0.00,,CLR,0.00,332.00,VWS V14.00,2013-10-01 15:43:00,
2013-10-01 10:49:00,56.3,39.4,29.85,West,265,17.0,23.0,53,0.00,,CLR,0.00,241.00,VWS V14.00,2013-10-01 15:49:00,
2013-10-01 10:55:00,56.6,39.7,29.86,West,260,19.0,23.0,53,0.00,,CLR,0.00,225.00,VWS V14.00,2013-10-01 15:55:00,
2013-10-01 11:00:00,56.9,39.5,29.86,West,259,15.0,21.0,52,0.00,,CLR,0.00,311.00,VWS V14.00,2013-10-01 16:00:00,
2013-10-01 11:07:00,57.2,39.2,29.86,West,270,15.0,21.0,51,0.00,,CLR,0.00,301.00,VWS V14.00,2013-10-01 16:07:00,
2013-10-01 11:13:00,57.8,39.3,29.86,West,270,15.0,22.0,50,0.00,,CLR,0.00,316.00,VWS V14.00,2013-10-01 16:13:00,
2013-10-01 11:18:00,58.1,39.6,29.86,West,267,16.0,23.0,50,0.00,,CLR,0.00,418.00,VWS V14.00,2013-10-01 16:18:00,
2013-10-01 11:23:00,58.5,38.9,29.86,West,265,19.0,24.0,48,0.00,,CLR,0.00,390.00,VWS V14.00,2013-10-01 16:23:00,
2013-10-01 11:28:00,58.6,39.5,29.86,WSW,250,15.0,24.0,49,0.00,,CLR,0.00,403.00,VWS V14.00,2013-10-01 16:28:00,
2013-10-01 11:33:00,58.7,39.1,29.86,West,262,20.0,24.0,48,0.00,,CLR,0.00,427.00,VWS V14.00,2013-10-01 16:33:00,
2013-10-01 11:35:00,58.9,39.3,29.86,West,272,19.0,24.0,48,0.00,,CLR,0.00,563.00,VWS V14.00,2013-10-01 16:35:00,
2013-10-01 11:41:00,59.3,39.1,29.86,WSW,258,13.0,27.0,47,0.00,,CLR,0.00,489.00,VWS V14.00,2013-10-01 16:41:00,
2013-10-01 11:46:00,59.5,39.3,29.86,West,271,16.0,27.0,47,0.00,,CLR,0.00,517.00,VWS V14.00,2013-10-01 16:46:00,
2013-10-01 11:51:00,59.7,38.9,29.86,WNW,285,21.0,27.0,46,0.00,,CLR,0.00,587.00,VWS V14.00,2013-10-01 16:51:00,
2013-10-01 11:56:00,59.6,38.8,29.86,West,266,18.0,27.0,46,0.00,,CLR,0.00,596.00,VWS V14.00,2013-10-01 16:56:00,
2013-10-01 12:01:00,60.0,38.6,29.86,West,276,20.0,26.0,45,0.00,,CLR,0.00,605.00,VWS V14.00,2013-10-01 17:01:00,
2013-10-01 12:06:00,59.8,38.4,29.86,West,267,20.0,27.0,45,0.00,,CLR,0.00,612.00,VWS V14.00,2013-10-01 17:06:00,
2013-10-01 12:12:00,60.3,37.7,29.86,WNW,283,17.0,27.0,43,0.00,,CLR,0.00,619.00,VWS V14.00,2013-10-01 17:12:00,
2013-10-01 12:17:00,60.7,39.8,29.86,West,272,19.0,27.0,46,0.00,,CLR,0.00,624.00,VWS V14.00,2013-10-01 17:17:00,
2013-10-01 12:22:00,61.1,39.6,29.86,West,270,16.0,27.0,45,0.00,,CLR,0.00,631.00,VWS V14.00,2013-10-01 17:22:00,
2013-10-01 12:27:00,61.4,39.9,29.86,West,268,18.0,27.0,45,0.00,,CLR,0.00,636.00,VWS V14.00,2013-10-01 17:27:00,
2013-10-01 12:32:00,61.4,38.1,29.86,West,270,22.0,29.0,42,0.00,,CLR,0.00,642.00,VWS V14.00,2013-10-01 17:32:00,
2013-10-01 12:37:00,61.2,39.1,29.86,West,271,22.0,29.0,44,0.00,,CLR,0.00,645.00,VWS V14.00,2013-10-01 17:37:00,
2013-10-01 12:43:00,61.3,38.6,29.86,West,269,19.0,29.0,43,0.00,,CLR,0.00,652.00,VWS V14.00,2013-10-01 17:43:00,
2013-10-01 12:48:00,61.4,37.5,29.86,West,260,22.0,30.0,41,0.00,,CLR,0.00,657.00,VWS V14.00,2013-10-01 17:48:00,
2013-10-01 12:53:00,61.6,38.3,29.86,West,274,14.0,30.0,42,0.00,,CLR,0.00,661.00,VWS V14.00,2013-10-01 17:53:00,
2013-10-01 12:58:00,61.7,37.8,29.86,West,273,20.0,30.0,41,0.00,,CLR,0.00,663.00,VWS V14.00,2013-10-01 17:58:00,
2013-10-01 13:03:00,61.7,38.4,29.86,West,267,15.0,23.0,42,0.00,,CLR,0.00,663.00,VWS V14.00,2013-10-01 18:03:00,
2013-10-01 13:08:00,62.1,38.1,29.86,West,281,17.0,23.0,41,0.00,,CLR,0.00,668.00,VWS V14.00,2013-10-01 18:08:00,
2013-10-01 13:15:00,61.7,37.2,29.86,WSW,256,23.0,27.0,40,0.00,,CLR,0.00,671.00,VWS V14.00,2013-10-01 18:15:00,
2013-10-01 13:20:00,62.0,38.0,29.86,West,273,22.0,29.0,41,0.00,,CLR,0.00,671.00,VWS V14.00,2013-10-01 18:20:00,
2013-10-01 13:25:00,62.2,38.8,29.87,WSW,257,23.0,29.0,42,0.00,,CLR,0.00,673.00,VWS V14.00,2013-10-01 18:25:00,
2013-10-01 13:30:00,62.2,37.6,29.87,WNW,290,24.0,26.0,40,0.00,,CLR,0.00,673.00,VWS V14.00,2013-10-01 18:30:00,
2013-10-01 13:35:00,62.6,38.6,29.86,West,267,16.0,26.0,41,0.00,,CLR,0.00,675.00,VWS V14.00,2013-10-01 18:35:00,
2013-10-01 13:40:00,62.9,38.9,29.86,West,275,17.0,26.0,41,0.00,,CLR,0.00,671.00,VWS V14.00,2013-10-01 18:40:00,
2013-10-01 13:45:00,62.8,36.8,29.86,WNW,295,23.0,28.0,38,0.00,,CLR,0.00,673.00,VWS V14.00,2013-10-01 18:45:00,
2013-10-01 13:50:00,62.9,38.2,29.86,West,263,22.0,29.0,40,0.00,,CLR,0.00,673.00,VWS V14.00,2013-10-01 18:50:00,
2013-10-01 13:55:00,63.4,38.0,29.86,West,267,23.0,29.0,39,0.00,,CLR,0.00,673.00,VWS V14.00,2013-10-01 18:55:00,
2013-10-01 14:00:00,63.1,37.8,29.86,WSW,257,28.0,28.0,39,0.00,,CLR,0.00,671.00,VWS V14.00,2013-10-01 19:00:00,
2013-10-01 14:06:00,63.3,35.9,29.86,West,281,22.0,30.0,36,0.00,,CLR,0.00,671.00,VWS V14.00,2013-10-01 19:06:00,
2013-10-01 14:11:00,63.6,38.2,29.86,West,276,17.0,30.0,39,0.00,,CLR,0.00,666.00,VWS V14.00,2013-10-01 19:11:00,
2013-10-01 14:16:00,63.9,36.5,29.86,West,265,13.0,30.0,36,0.00,,CLR,0.00,661.00,VWS V14.00,2013-10-01 19:16:00,
2013-10-01 14:21:00,63.6,35.5,29.86,WSW,257,27.0,30.0,35,0.00,,CLR,0.00,664.00,VWS V14.00,2013-10-01 19:21:00,
2013-10-01 14:26:00,63.7,37.0,29.86,West,267,24.0,30.0,37,0.00,,CLR,0.00,656.00,VWS V14.00,2013-10-01 19:26:00,
2013-10-01 14:31:00,63.9,36.5,29.86,West,278,16.0,26.0,36,0.00,,CLR,0.00,650.00,VWS V14.00,2013-10-01 19:31:00,
2013-10-01 14:36:00,64.2,36.0,29.86,West,275,22.0,32.0,35,0.00,,CLR,0.00,645.00,VWS V14.00,2013-10-01 19:36:00,
2013-10-01 14:41:00,64.0,36.5,29.86,West,277,27.0,32.0,36,0.00,,CLR,0.00,645.00,VWS V14.00,2013-10-01 19:41:00,
2013-10-01 14:47:00,64.1,35.9,29.86,West,269,16.0,32.0,35,0.00,,CLR,0.00,638.00,VWS V14.00,2013-10-01 19:47:00,
2013-10-01 14:52:00,64.3,34.6,29.86,West,267,23.0,32.0,33,0.00,,CLR,0.00,629.00,VWS V14.00,2013-10-01 19:52:00,
2013-10-01 14:57:00,64.3,36.8,29.87,West,271,17.0,32.0,36,0.00,,CLR,0.00,626.00,VWS V14.00,2013-10-01 19:57:00,
2013-10-01 15:02:00,64.5,37.0,29.87,WNW,301,17.0,25.0,36,0.00,,CLR,0.00,619.00,VWS V14.00,2013-10-01 20:02:00,
2013-10-01 15:08:00,64.4,36.2,29.86,WSW,251,19.0,25.0,35,0.00,,CLR,0.00,612.00,VWS V14.00,2013-10-01 20:08:00,
2013-10-01 15:13:00,64.8,36.5,29.86,WSW,255,20.0,25.0,35,0.00,,CLR,0.00,605.00,VWS V14.00,2013-10-01 20:13:00,
2013-10-01 15:19:00,64.8,35.8,29.86,West,271,15.0,25.0,34,0.00,,CLR,0.00,598.00,VWS V14.00,2013-10-01 20:19:00,
2013-10-01 15:24:00,64.7,35.7,29.86,WNW,290,19.0,27.0,34,0.00,,CLR,0.00,592.00,VWS V14.00,2013-10-01 20:24:00,
2013-10-01 15:29:00,64.8,35.0,29.86,WNW,288,23.0,27.0,33,0.00,,CLR,0.00,582.00,VWS V14.00,2013-10-01 20:29:00,
2013-10-01 15:34:00,64.7,34.2,29.86,West,279,13.0,24.0,32,0.00,,CLR,0.00,573.00,VWS V14.00,2013-10-01 20:34:00,
2013-10-01 15:39:00,64.9,35.9,29.86,West,267,19.0,24.0,34,0.00,,CLR,0.00,563.00,VWS V14.00,2013-10-01 20:39:00,
2013-10-01 15:44:00,65.1,36.8,29.86,West,264,19.0,24.0,35,0.00,,CLR,0.00,555.00,VWS V14.00,2013-10-01 20:44:00,
2013-10-01 15:49:00,65.1,34.5,29.86,WSW,258,13.0,24.0,32,0.00,,CLR,0.00,545.00,VWS V14.00,2013-10-01 20:49:00,
2013-10-01 15:54:00,65.3,35.5,29.87,West,269,13.0,24.0,33,0.00,,CLR,0.00,534.00,VWS V14.00,2013-10-01 20:54:00,
2013-10-01 16:00:00,65.3,34.7,29.86,West,267,14.0,16.0,32,0.00,,CLR,0.00,524.00,VWS V14.00,2013-10-01 21:00:00,
2013-10-01 16:05:00,65.6,35.0,29.86,WNW,294,17.0,21.0,32,0.00,,CLR,0.00,517.00,VWS V14.00,2013-10-01 21:05:00,
2013-10-01 16:10:00,65.3,34.7,29.86,WNW,282,19.0,21.0,32,0.00,,CLR,0.00,501.00,VWS V14.00,2013-10-01 21:10:00,
2013-10-01 16:15:00,65.4,36.3,29.86,West,263,14.0,21.0,34,0.00,,CLR,0.00,490.00,VWS V14.00,2013-10-01 21:15:00,
2013-10-01 16:20:00,65.6,35.8,29.86,West,263,16.0,21.0,33,0.00,,CLR,0.00,480.00,VWS V14.00,2013-10-01 21:20:00,
2013-10-01 16:25:00,65.4,34.0,29.86,West,271,18.0,27.0,31,0.00,,CLR,0.00,469.00,VWS V14.00,2013-10-01 21:25:00,
2013-10-01 16:30:00,65.6,36.5,29.86,West,267,17.0,26.0,34,0.00,,CLR,0.00,455.00,VWS V14.00,2013-10-01 21:30:00,
2013-10-01 16:35:00,65.5,34.1,29.86,West,275,16.0,26.0,31,0.00,,CLR,0.00,445.00,VWS V14.00,2013-10-01 21:35:00,
2013-10-01 16:41:00,65.6,36.5,29.86,West,274,15.0,26.0,34,0.00,,CLR,0.00,431.00,VWS V14.00,2013-10-01 21:41:00,
2013-10-01 16:46:00,65.7,35.8,29.86,West,273,17.0,26.0,33,0.00,,CLR,0.00,418.00,VWS V14.00,2013-10-01 21:46:00,
2013-10-01 16:51:00,65.5,34.9,29.86,WSW,252,17.0,26.0,32,0.00,,CLR,0.00,406.00,VWS V14.00,2013-10-01 21:51:00,
2013-10-01 16:56:00,65.5,35.7,29.86,West,261,16.0,26.0,33,0.00,,CLR,0.00,394.00,VWS V14.00,2013-10-01 21:56:00,
2013-10-01 17:01:00,65.3,35.5,29.86,West,269,14.0,24.0,33,0.00,,CLR,0.00,380.00,VWS V14.00,2013-10-01 22:01:00,
2013-10-01 17:07:00,65.4,37.1,29.86,West,268,10.0,24.0,35,0.00,,CLR,0.00,366.00,VWS V14.00,2013-10-01 22:07:00,
2013-10-01 17:12:00,65.6,35.0,29.86,West,274,19.0,24.0,32,0.00,,CLR,0.00,353.00,VWS V14.00,2013-10-01 22:12:00,
2013-10-01 17:17:00,65.4,34.8,29.86,WNW,286,20.0,24.0,32,0.00,,CLR,0.00,339.00,VWS V14.00,2013-10-01 22:17:00,
2013-10-01 17:23:00,65.3,36.2,29.86,WNW,293,17.0,24.0,34,0.00,,CLR,0.00,320.00,VWS V14.00,2013-10-01 22:23:00,
2013-10-01 17:28:00,65.3,36.2,29.86,West,276,12.0,24.0,34,0.00,,CLR,0.00,306.00,VWS V14.00,2013-10-01 22:28:00,
2013-10-01 17:33:00,65.2,34.6,29.86,West,281,15.0,21.0,32,0.00,,CLR,0.00,292.00,VWS V14.00,2013-10-01 22:33:00,
2013-10-01 17:39:00,65.0,35.2,29.86,WNW,286,14.0,21.0,33,0.00,,CLR,0.00,274.00,VWS V14.00,2013-10-01 22:39:00,
2013-10-01 17:44:00,65.0,35.2,29.86,West,271,14.0,21.0,33,0.00,,CLR,0.00,255.00,VWS V14.00,2013-10-01 22:44:00,
2013-10-01 17:49:00,64.9,35.9,29.86,WNW,286,15.0,21.0,34,0.00,,CLR,0.00,236.00,VWS V14.00,2013-10-01 22:49:00,
2013-10-01 17:54:00,64.8,34.3,29.86,West,279,12.0,21.0,32,0.00,,CLR,0.00,216.00,VWS V14.00,2013-10-01 22:54:00,
2013-10-01 17:59:00,64.7,35.7,29.87,West,272,13.0,21.0,34,0.00,,CLR,0.00,197.00,VWS V14.00,2013-10-01 22:59:00,
2013-10-01 18:04:00,64.5,35.5,29.87,WNW,290,10.0,14.0,34,0.00,,CLR,0.00,179.00,VWS V14.00,2013-10-01 23:04:00,
2013-10-01 18:10:00,64.4,36.2,29.87,WNW,293,12.0,14.0,35,0.00,,CLR,0.00,160.00,VWS V14.00,2013-10-01 23:10:00,
2013-10-01 18:15:00,64.2,36.0,29.87,West,276,8.0,15.0,35,0.00,,CLR,0.00,141.00,VWS V14.00,2013-10-01 23:15:00,
2013-10-01 18:20:00,64.0,37.2,29.87,West,275,8.0,15.0,37,0.00,,CLR,0.00,123.00,VWS V14.00,2013-10-01 23:20:00,
2013-10-01 18:25:00,63.8,37.0,29.87,West,275,7.0,15.0,37,0.00,,CLR,0.00,105.00,VWS V14.00,2013-10-01 23:25:00,
2013-10-01 18:30:00,63.5,37.5,29.87,West,279,9.0,9.0,38,0.00,,CLR,0.00,90.00,VWS V14.00,2013-10-01 23:30:00,
2013-10-01 18:35:00,63.2,36.5,29.87,West,280,5.0,9.0,37,0.00,,CLR,0.00,74.00,VWS V14.00,2013-10-01 23:35:00,
2013-10-01 18:40:00,62.9,36.9,29.87,West,276,6.0,9.0,38,0.00,,CLR,0.00,60.00,VWS V14.00,2013-10-01 23:40:00,
2013-10-01 18:45:00,62.5,38.5,29.87,West,276,4.0,9.0,41,0.00,,CLR,0.00,47.00,VWS V14.00,2013-10-01 23:45:00,
2013-10-01 18:50:00,62.0,38.0,29.87,West,277,5.0,9.0,41,0.00,,CLR,0.00,39.00,VWS V14.00,2013-10-01 23:50:00,
2013-10-01 18:55:00,61.7,37.8,29.87,West,276,2.0,9.0,41,0.00,,CLR,0.00,28.00,VWS V14.00,2013-10-01 23:55:00,
2013-10-01 19:00:00,61.6,37.1,29.88,West,276,2.0,3.0,40,0.00,,CLR,0.00,21.00,VWS V14.00,2013-10-02 00:00:00,
2013-10-01 19:05:00,61.4,38.1,29.88,West,276,3.0,3.0,42,0.00,,CLR,0.00,18.00,VWS V14.00,2013-10-02 00:05:00,
2013-10-01 19:10:00,60.8,37.6,29.88,West,275,3.0,4.0,42,0.00,,CLR,0.00,14.00,VWS V14.00,2013-10-02 00:10:00,
2013-10-01 19:15:00,60.1,37.5,29.88,WSW,257,5.0,6.0,43,0.00,,CLR,0.00,11.00,VWS V14.00,2013-10-02 00:15:00,
2013-10-01 19:20:00,59.4,36.3,29.88,WSW,255,5.0,6.0,42,0.00,,CLR,0.00,7.00,VWS V14.00,2013-10-02 00:20:00,
2013-10-01 19:24:00,59.0,36.0,29.88,WSW,255,3.0,6.0,42,0.00,,CLR,0.00,5.00,VWS V14.00,2013-10-02 00:24:00,
2013-10-01 19:29:00,58.9,35.3,29.88,WSW,257,6.0,7.0,41,0.00,,CLR,0.00,0.00,VWS V14.00,2013-10-02 00:29:00,
2013-10-01 19:34:00,58.7,35.1,29.89,WSW,257,3.0,5.0,41,0.00,,CLR,0.00,0.00,VWS V14.00,2013-10-02 00:34:00,
2013-10-01 19:39:00,58.5,34.9,29.89,WSW,257,4.0,5.0,41,0.00,,CLR,0.00,0.00,VWS V14.00,2013-10-02 00:39:00,
2013-10-01 19:44:00,58.3,35.3,29.89,WSW,257,3.0,5.0,42,0.00,,CLR,0.00,0.00,VWS V14.00,2013-10-02 00:44:00,
2013-10-01 19:49:00,57.9,35.0,29.89,WSW,257,3.0,5.0,42,0.00,,CLR,0.00,0.00,VWS V14.00,2013-10-02 00:49:00,
2013-10-01 19:54:00,57.7,34.8,29.89,WSW,257,3.0,5.0,42,0.00,,CLR,0.00,0.00,VWS V14.00,2013-10-02 00:54:00,
2013-10-01 19:59:00,57.4,35.1,29.89,WSW,257,4.0,5.0,43,0.00,,CLR,0.00,0.00,VWS V14.00,2013-10-02 00:59:00,
2013-10-01 20:04:00,57.1,34.8,29.89,WSW,257,3.0,4.0,43,0.00,,CLR,0.00,0.00,VWS V14.00,2013-10-02 01:04:00,
2013-10-01 20:09:00,56.8,34.6,29.90,WSW,257,4.0,4.0,43,0.00,,CLR,0.00,0.00,VWS V14.00,2013-10-02 01:09:00,
2013-10-01 20:14:00,56.5,34.3,29.90,WSW,257,3.0,5.0,43,0.00,,CLR,0.00,0.00,VWS V14.00,2013-10-02 01:14:00,
2013-10-01 20:19:00,56.2,34.6,29.90,WSW,257,3.0,5.0,44,0.00,,CLR,0.00,0.00,VWS V14.00,2013-10-02 01:19:00,
2013-10-01 20:24:00,56.0,34.4,29.90,WSW,255,4.0,5.0,44,0.00,,CLR,0.00,0.00,VWS V14.00,2013-10-02 01:24:00,
2013-10-01 20:29:00,55.9,34.3,29.90,WSW,255,4.0,4.0,44,0.00,,CLR,0.00,0.00,VWS V14.00,2013-10-02 01:29:00,
2013-10-01 20:35:00,55.8,34.2,29.90,WSW,255,4.0,5.0,44,0.00,,CLR,0.00,0.00,VWS V14.00,2013-10-02 01:35:00,
2013-10-01 20:40:00,55.8,34.2,29.90,WSW,255,3.0,5.0,44,0.00,,CLR,0.00,0.00,VWS V14.00,2013-10-02 01:40:00,
2013-10-01 20:45:00,55.8,34.2,29.90,WSW,255,3.0,5.0,44,0.00,,CLR,0.00,0.00,VWS V14.00,2013-10-02 01:45:00,
2013-10-01 20:50:00,55.8,34.2,29.91,WSW,255,4.0,5.0,44,0.00,,CLR,0.00,0.00,VWS V14.00,2013-10-02 01:50:00,
2013-10-01 20:55:00,55.7,34.1,29.90,WSW,255,2.0,5.0,44,0.00,,CLR,0.00,0.00,VWS V14.00,2013-10-02 01:55:00,
2013-10-01 21:00:00,55.4,34.4,29.91,WSW,255,4.0,4.0,45,0.00,,CLR,0.00,0.00,VWS V14.00,2013-10-02 02:00:00,
2013-10-01 21:05:00,55.3,34.9,29.91,WSW,254,4.0,5.0,46,0.00,,CLR,0.00,0.00,VWS V14.00,2013-10-02 02:05:00,
2013-10-01 21:10:00,55.3,34.3,29.91,WSW,254,3.0,5.0,45,0.00,,CLR,0.00,0.00,VWS V14.00,2013-10-02 02:10:00,
2013-10-01 21:15:00,55.5,34.5,29.91,WSW,254,3.0,5.0,45,0.00,,CLR,0.00,0.00,VWS V14.00,2013-10-02 02:15:00,
2013-10-01 21:20:00,55.6,34.0,29.91,WSW,254,2.0,5.0,44,0.00,,CLR,0.00,0.00,VWS V14.00,2013-10-02 02:20:00,
2013-10-01 21:25:00,55.5,34.0,29.91,WSW,254,4.0,5.0,44,0.00,,CLR,0.00,0.00,VWS V14.00,2013-10-02 02:25:00,
2013-10-01 21:30:00,55.4,33.9,29.91,WSW,254,4.0,4.0,44,0.00,,CLR,0.00,0.00,VWS V14.00,2013-10-02 02:30:00,
2013-10-01 21:35:00,55.2,34.2,29.91,WSW,254,3.0,4.0,45,0.00,,CLR,0.00,0.00,VWS V14.00,2013-10-02 02:35:00,
2013-10-01 21:40:00,54.6,34.8,29.91,WSW,254,2.0,4.0,47,0.00,,CLR,0.00,0.00,VWS V14.00,2013-10-02 02:40:00,
2013-10-01 21:45:00,54.1,34.3,29.91,WSW,254,2.0,4.0,47,0.00,,CLR,0.00,0.00,VWS V14.00,2013-10-02 02:45:00,
2013-10-01 21:50:00,54.0,34.2,29.91,WSW,254,2.0,4.0,47,0.00,,CLR,0.00,0.00,VWS V14.00,2013-10-02 02:50:00,
2013-10-01 21:55:00,54.1,34.3,29.91,WSW,254,2.0,4.0,47,0.00,,CLR,0.00,0.00,VWS V14.00,2013-10-02 02:55:00,
2013-10-01 22:00:00,54.1,33.8,29.91,WSW,254,2.0,2.0,46,0.00,,CLR,0.00,0.00,VWS V14.00,2013-10-02 03:00:00,
2013-10-01 22:05:00,54.4,34.1,29.91,WSW,254,3.0,3.0,46,0.00,,CLR,0.00,0.00,VWS V14.00,2013-10-02 03:05:00,
2013-10-01 22:10:00,54.4,34.1,29.91,WSW,254,4.0,4.0,46,0.00,,CLR,0.00,0.00,VWS V14.00,2013-10-02 03:10:00,
2013-10-01 22:15:00,54.4,34.6,29.91,WSW,254,5.0,5.0,47,0.00,,CLR,0.00,0.00,VWS V14.00,2013-10-02 03:15:00,
2013-10-01 22:20:00,53.3,35.7,29.91,SW,223,6.0,6.0,51,0.00,,CLR,0.00,0.00,VWS V14.00,2013-10-02 03:20:00,
2013-10-01 22:25:00,50.9,35.8,29.92,SSW,211,4.0,6.0,56,0.00,,CLR,0.00,0.00,VWS V14.00,2013-10-02 03:25:00,
2013-10-01 22:30:00,50.4,35.3,29.92,SSW,211,4.0,5.0,56,0.00,,CLR,0.00,0.00,VWS V14.00,2013-10-02 03:30:00,
2013-10-01 22:35:00,50.4,35.3,29.92,SSW,206,6.0,6.0,56,0.00,,CLR,0.00,0.00,VWS V14.00,2013-10-02 03:35:00,
2013-10-01 22:40:00,50.1,35.9,29.92,SSW,203,3.0,6.0,58,0.00,,CLR,0.00,0.00,VWS V14.00,2013-10-02 03:40:00,
2013-10-01 22:45:00,50.2,36.0,29.92,SSW,203,3.0,6.0,58,0.00,,CLR,0.00,0.00,VWS V14.00,2013-10-02 03:45:00,
2013-10-01 22:50:00,50.4,35.8,29.92,SSW,203,2.0,6.0,57,0.00,,CLR,0.00,0.00,VWS V14.00,2013-10-02 03:50:00,
2013-10-01 22:55:00,50.6,35.5,29.92,SSW,203,3.0,6.0,56,0.00,,CLR,0.00,0.00,VWS V14.00,2013-10-02 03:55:00,
2013-10-01 23:01:00,50.8,35.7,29.92,SSW,203,2.0,2.0,56,0.00,,CLR,0.00,0.00,VWS V14.00,2013-10-02 04:01:00,
2013-10-01 23:02:00,50.8,35.7,29.92,SSW,203,2.0,2.0,56,0.00,,CLR,0.00,0.00,VWS V14.00,2013-10-02 04:02:00,
2013-10-01 23:03:00,50.8,35.7,29.92,SSW,203,2.0,2.0,56,0.00,,CLR,0.00,0.00,VWS V14.00,2013-10-02 04:03:00,
2013-10-01 23:04:00,50.8,35.7,29.92,SSW,203,3.0,3.0,56,0.00,,CLR,0.00,0.00,VWS V14.00,2013-10-02 04:04:00,
2013-10-01 23:07:00,50.5,35.4,29.92,SSW,203,2.0,3.0,56,0.00,,CLR,0.00,0.00,VWS V14.00,2013-10-02 04:07:00,
2013-10-01 23:08:00,50.5,35.8,29.92,SSW,203,2.0,3.0,57,0.00,,CLR,0.00,0.00,VWS V14.00,2013-10-02 04:08:00,
2013-10-01 23:13:00,50.7,35.6,29.92,SSW,203,1.0,3.0,56,0.00,,CLR,0.00,0.00,VWS V14.00,2013-10-02 04:13:00,
2013-10-01 23:18:00,50.5,35.4,29.92,SSW,203,1.0,3.0,56,0.00,,CLR,0.00,0.00,VWS V14.00,2013-10-02 04:18:00,
2013-10-01 23:23:00,50.8,35.7,29.92,SSW,203,2.0,3.0,56,0.00,,CLR,0.00,0.00,VWS V14.00,2013-10-02 04:23:00,
2013-10-01 23:28:00,50.9,35.3,29.92,SSW,198,4.0,4.0,55,0.00,,CLR,0.00,0.00,VWS V14.00,2013-10-02 04:28:00,
2013-10-01 23:33:00,50.7,35.6,29.92,South,188,3.0,4.0,56,0.00,,CLR,0.00,0.00,VWS V14.00,2013-10-02 04:33:00,
2013-10-01 23:38:00,50.2,35.6,29.92,South,187,3.0,4.0,57,0.00,,CLR,0.00,0.00,VWS V14.00,2013-10-02 04:38:00,
2013-10-01 23:43:00,49.7,35.1,29.92,South,185,4.0,4.0,57,0.00,,CLR,0.00,0.00,VWS V14.00,2013-10-02 04:43:00,
2013-10-01 23:48:00,49.4,35.3,29.92,South,185,2.0,4.0,58,0.00,,CLR,0.00,0.00,VWS V14.00,2013-10-02 04:48:00,
2013-10-01 23:53:00,49.5,35.3,29.93,South,185,2.0,4.0,58,0.00,,CLR,0.00,0.00,VWS V14.00,2013-10-02 04:53:00,
2013-10-01 23:58:00,47.9,35.5,29.93,South,185,3.0,4.0,62,0.00,,CLR,0.00,0.00,VWS V14.00,2013-10-02 04:58:00,